SL-14 DEB

Satellite information

Favourite Embed

Satellite Type and Status

DEBRISIN ORBIT

Key statistics

Satellite SL-14 DEB at a glance.

Uptime

13896

Days in orbit

Revolutions

≈ 14.0

Per day

Orbit

LEO

Low Earth Orbit

Inclination

82.6

Latest

Satellite identification and parameters

Extended collection of information and parameters for SL-14 DEB.

Object identification

Identified? True

Debris? True

Object name: SL-14 DEB

International designator: 1987-068DB

Object number (NORAD): 39975

Object ID (CCSDS): 39975

Country: COMMONWEALTH OF INDEPENDENT STATES (CIS)

Current information (Y/N): Y

RCS size: SMALL

Orbital parameters

Period: 102.542 minutes

Inclination: 82.5957 deg

SMA: 7257.068 km

Apoapsis: 949.725 km

Periapsis: 808.14 km

RAAN: 36.033 deg

Eccentricy: 0.009755

Argument of periapsis: 214.7481 deg

Mean anomaly: 144.7296 deg

Mean motion: 14.04303571 rev/day

Mean motion (dot): 0.00001629 rev/day2

B* drag term: 0.00097407811 1/REarth

Two-line elements (TLE)

Creation date: Aug. 31, 2025, 11:35 a.m.

Reference frame: TEME

Reference center: EARTH

Epoch: Aug. 31, 2025, 4:08 a.m. UTC

TLE line 0: 0 SL-14 DEB

TLE line 1: 1 39975U 87068DB 25243.17270633 .00001629 00000-0 97408-3 0 9996

TLE line 2: 2 39975 82.5957 36.0330 0097550 214.7481 144.7296 14.04303571574837

Live tracking on map

Real-time ground track for satellite SL-14 DEB.

In-orbit conjunctions

A list of the most updated potential collisions computed for object SL-14 DEB.

Target Orbit TCA Probability of collision Miss distance Type
CZ-4B DEB LEO 2024-11-10 06:52:37 0.0002190917 936.0 (m) DEBRIS
COSMOS 1275 DEB LEO 2024-06-26 00:34:45 0.0001116734 343.0 (m) DEBRIS

Associated space launch

Second generation soviet meteorological satellite

SL-14 DEB was lifted into orbit during the mission ‘Tsiklon-3 | Meteor-2 16’, on board a Tsiklon-3 space rocket.

The launch took place on Aug. 18, 1987, 2:27 a.m. from 32/1.

For more information about the launch, click the button.

Launch to space Tsiklon-3 | Meteor-2 16
Tsiklon-3 | Meteor-2 16

Agency: N/A

Status: Launch Successful

Launch date: Aug. 18, 1987, 2:27 a.m. UTC

Rocket: Tsiklon-3

Launch pad: 32/1

Location: Plesetsk Cosmodrome, Russian Federation

...

Latest news about this satellite

There are no fresh news available about this satellite. Check back as we update our databases every day.


Newsletter sign-up

Weekly statistics, charts and insights to help you stay on top of the space industry.